KE8BSM Weather Reports


time (UTC)temp
C
wind
direction
speed
KPH
gust
KPH
rain 1hr
cm
rain 24hr
cm
rain mn
cm
humidity
%
barometer
mb
20260510171816 12 242 3.2 8.0 0.00 0.00 0.00 39 1018.9
20260510170856 12 134 4.8 6.4 0.00 0.00 0.00 40 1018.8
20260510165816 12 268 4.8 8.0 0.00 0.00 0.00 40 1018.9
20260510164816 12 3 8.0 12.9 0.00 0.03 0.00 41 1018.8
20260510163817 12 275 4.8 8.0 0.00 0.03 0.00 40 1018.8
20260510162816 12 141 3.2 6.4 0.00 0.03 0.00 38 1018.7
20260510161817 11 12 9.7 12.9 0.00 0.03 0.00 42 1018.7
20260510160837 12 185 4.8 8.0 0.00 0.03 0.00 38 1018.6
20260510155817 11 21 8.0 11.3 0.00 0.03 0.00 41 1018.6
20260510154817 11 14 6.4 11.3 0.00 0.03 0.00 40 1018.5
20260510153816 11 308 3.2 6.4 0.00 0.03 0.00 42 1018.5
20260510152817 11 61 1.6 3.2 0.00 0.03 0.00 41 1018.4
20260510151817 11 80 1.6 4.8 0.00 0.03 0.00 41 1018.4
20260510150818 11 12 6.4 12.9 0.00 0.03 0.00 42 1018.4
20260510145826 10 6 6.4 8.0 0.00 0.03 0.00 43 1018.3
20260510144826 10 5 4.8 9.7 0.00 0.03 0.00 41 1018.2
20260510143818 10 11 4.8 6.4 0.00 0.03 0.00 41 1018.1
20260510142818 10 8 6.4 9.7 0.00 0.03 0.00 44 1018.0
20260510141827 10 349 3.2 4.8 0.00 0.03 0.00 44 1017.9
20260510140827 10 345 8.0 9.7 0.00 0.03 0.00 46 1017.9
20260510135818 10 331 6.4 11.3 0.00 0.03 0.00 44 1018.0
20260510134827 9 207 0.0 0.0 0.00 0.03 0.00 48 1018.0
20260510133847 9 16 6.4 6.4 0.00 0.03 0.00 46 1017.9
20260510132827 9 338 0.0 3.2 0.00 0.03 0.00 47 1017.8
20260510131818 8 37 1.6 4.8 0.00 0.03 0.00 48 1017.7
20260510130827 8 83 0.0 1.6 0.00 0.03 0.00 55 1017.7
20260510125827 8 354 1.6 3.2 0.00 0.03 0.00 57 1017.8
20260510124848 8 299 1.6 3.2 0.00 0.03 0.00 61 1017.5
20260510123828 7 227 3.2 3.2 0.00 0.03 0.00 62 1017.4
20260510122828 7 225 1.6 3.2 0.00 0.03 0.00 65 1017.3
20260510121828 6 213 3.2 4.8 0.00 0.03 0.00 69 1017.2
20260510120828 6 16 0.0 1.6 0.00 0.03 0.00 78 1017.1
20260510115848 5 331 0.0 0.0 0.00 0.03 0.00 79 1017.0
20260510114828 5 340 0.0 1.6 0.00 0.03 0.00 82 1016.9
20260510113828 3 0.0 0.0 0.00 0.03 0.00 84 1016.7
20260510112829 3 334 1.6 1.6 0.00 0.03 0.00 84 1016.6
20260510111829 3 334 0.0 0.0 0.00 0.03 0.00 87 1016.4
20260510110829 3 313 0.0 1.6 0.00 0.03 0.00 88 1016.4
20260510105830 3 306 0.0 1.6 0.00 0.03 0.00 85 1016.3
20260510104909 2 0.0 0.0 0.00 0.03 0.00 83 1016.2
20260510103829 2 0.0 0.0 0.00 0.03 0.00 83 1016.1
20260510102829 2 0.0 0.0 0.00 0.03 0.00 84 1016.0
20260510101830 2 0.0 0.0 0.00 0.03 0.00 84 1015.8
20260510100831 2 273 0.0 1.6 0.00 0.03 0.00 83 1015.5
20260510095830 3 0.0 0.0 0.00 0.03 0.00 82 1015.3
20260510094815 3 0.0 0.0 0.00 0.03 0.00 80 1015.3
20260510093815 3 0.0 0.0 0.00 0.03 0.00 83 1015.2
20260510092815 3 0.0 0.0 0.00 0.03 0.00 80 1015.1
20260510091816 3 310 0.0 0.0 0.00 0.03 0.00 82 1015.0
20260510090816 4 331 1.6 1.6 0.00 0.03 0.00 81 1014.7
20260510085816 4 334 0.0 1.6 0.00 0.03 0.00 80 1014.6
20260510084817 4 340 0.0 3.2 0.00 0.03 0.00 78 1014.5
20260510083817 5 0.0 0.0 0.00 0.03 0.00 78 1014.4
20260510082817 5 343 1.6 3.2 0.00 0.03 0.00 78 1014.3
20260510081837 5 0.0 0.0 0.00 0.03 0.00 73 1014.1
20260510080817 5 283 0.0 0.0 0.00 0.03 0.00 76 1013.9
20260510075817 5 0.0 0.0 0.00 0.03 0.00 72 1013.7
20260510074818 5 295 0.0 1.6 0.00 0.03 0.00 75 1013.5
20260510073817 5 0.0 0.0 0.00 0.03 0.00 70 1013.5
20260510072817 6 0.0 0.0 0.00 0.03 0.00 68 1013.3
20260510071838 6 0.0 0.0 0.00 0.03 0.00 66 1013.2
20260510070818 6 0.0 0.0 0.00 0.03 0.00 64 1013.1
20260510065835 7 0.0 0.0 0.00 0.03 0.00 62 1013.0
20260510064815 7 0.0 0.0 0.00 0.03 0.00 62 1013.0
20260510063835 7 0.0 0.0 0.00 0.03 0.00 60 1012.9
20260510062815 7 0.0 0.0 0.00 0.03 0.00 60 1013.0
20260510061816 7 0.0 0.0 0.00 0.03 0.00 58 1013.1
20260510060836 7 307 0.0 0.0 0.00 0.03 0.00 62 1013.1
20260510055816 8 8 6.4 9.7 0.00 0.03 0.00 59 1012.8
20260510054816 8 127 0.0 3.2 0.00 0.03 0.00 59 1012.7
20260510053837 8 355 8.0 11.3 0.00 0.03 0.00 64 1012.6
20260510052816 8 0.0 0.0 0.00 0.03 0.00 65 1012.3
20260510051817 8 341 4.8 8.0 0.00 0.03 0.00 65 1012.0
20260510050837 8 8 0.0 3.2 0.00 0.03 0.00 66 1011.7
20260510045818 9 14 3.2 4.8 0.00 0.03 0.00 66 1011.4
20260510044817 9 54 1.6 3.2 0.00 0.03 0.00 67 1011.1
20260510043838 9 360 3.2 6.4 0.00 0.03 0.00 65 1010.8
20260510042838 10 15 0.0 3.2 0.00 0.03 0.00 63 1010.6
20260510041818 10 332 1.6 6.4 0.00 0.03 0.00 65 1010.4
20260510040815 10 353 3.2 4.8 0.00 0.03 0.00 63 1010.2
20260510035815 10 340 4.8 6.4 0.00 0.03 0.03 63 1009.9
20260510034816 11 49 4.8 8.0 0.00 0.03 0.03 62 1009.7
20260510033816 11 359 6.4 9.7 0.00 0.03 0.03 62 1009.6
20260510032816 11 347 4.8 6.4 0.00 0.03 0.03 60 1009.4
20260510031816 11 4 3.2 4.8 0.00 0.03 0.03 58 1009.3
20260510030836 12 39 1.6 4.8 0.00 0.03 0.03 57 1009.2
20260510025816 12 13 3.2 4.8 0.00 0.03 0.03 58 1009.0
20260510024817 12 12 4.8 6.4 0.00 0.03 0.03 58 1008.8
20260510023816 12 0.0 0.0 0.00 0.03 0.03 58 1008.7
20260510022816 12 34 0.0 1.6 0.00 0.03 0.03 54 1008.4
20260510021839 12 348 1.6 6.4 0.00 0.03 0.03 55 1008.3
20260510020817 12 348 0.0 3.2 0.00 0.03 0.03 54 1008.1
20260510015817 12 34 3.2 4.8 0.00 0.03 0.03 52 1008.0
20260510014837 13 288 0.0 1.6 0.00 0.03 0.03 56 1007.9
20260510013817 13 352 0.0 3.2 0.00 0.03 0.03 52 1007.7
20260510012837 13 313 1.6 4.8 0.00 0.03 0.03 54 1007.5
20260510011818 13 358 4.8 8.0 0.00 0.03 0.03 52 1007.3
20260510010835 13 35 1.6 3.2 0.00 0.03 0.03 53 1007.1
20260510005815 14 346 3.2 6.4 0.00 0.03 0.03 52 1007.1
20260510004815 14 357 3.2 4.8 0.00 0.03 0.03 50 1007.0
20260510003818 15 327 3.2 4.8 0.00 0.03 0.03 50 1006.9
20260510002815 15 304 3.2 6.4 0.00 0.03 0.03 50 1006.7
20260510001815 15 354 6.4 11.3 0.00 0.03 0.03 49 1006.5
20260510000816 15 25 8.0 11.3 0.00 0.03 0.03 50 1006.3
20260509235816 15 10 4.8 9.7 0.00 0.03 0.03 48 1006.2
20260509234816 15 15 6.4 12.9 0.00 0.03 0.03 47 1006.0
20260509233817 16 39 8.0 11.3 0.00 0.03 0.03 47 1005.7
20260509232817 16 351 8.0 14.5 0.00 0.03 0.03 47 1005.7
20260509231857 16 359 4.8 11.3 0.00 0.03 0.03 46 1005.6
20260509230817 17 8 8.0 17.7 0.00 0.03 0.03 41 1005.3
20260509225837 17 357 3.2 6.4 0.00 0.03 0.03 37 1005.1
20260509224817 17 47 8.0 11.3 0.00 0.03 0.03 36 1005.0
20260509223817 17 35 8.0 12.9 0.00 0.03 0.03 44 1004.9
20260509222838 18 53 6.4 12.9 0.00 0.03 0.03 46 1004.6
20260509221817 18 36 9.7 14.5 0.00 0.03 0.03 45 1004.2
20260509220838 18 16 4.8 14.5 0.00 0.03 0.03 47 1003.9
20260509215815 18 36 4.8 11.3 0.00 0.03 0.03 51 1003.8
20260509214815 18 346 8.0 9.7 0.00 0.03 0.03 53 1003.7
20260509213838 17 267 1.6 4.8 0.00 0.03 0.03 54 1003.6
20260509212816 17 196 4.8 9.7 0.00 0.03 0.03 53 1003.4
20260509211836 17 221 1.6 4.8 0.00 0.03 0.03 54 1003.4
20260509210816 17 292 4.8 9.7 0.00 0.03 0.03 53 1003.3
20260509205836 17 232 1.6 4.8 0.00 0.03 0.03 52 1003.3
20260509204816 17 242 3.2 6.4 0.00 0.03 0.03 49 1003.3
20260509203816 17 238 4.8 11.3 0.00 0.03 0.03 53 1003.2
20260509202817 17 216 9.7 14.5 0.00 0.03 0.03 51 1003.3
20260509201816 17 225 3.2 11.3 0.00 0.03 0.03 53 1003.5
20260509200817 17 150 3.2 4.8 0.00 0.03 0.03 51 1003.4
20260509195817 17 293 3.2 6.4 0.00 0.03 0.03 51 1003.4
20260509194817 16 156 8.0 12.9 0.00 0.03 0.03 52 1003.3
20260509193817 16 215 6.4 9.7 0.00 0.03 0.03 55 1003.5
20260509192817 16 139 4.8 11.3 0.00 0.03 0.03 56 1003.5
20260509191817 16 186 6.4 11.3 0.00 0.03 0.03 59 1003.5
20260509190818 16 209 6.4 9.7 0.00 0.03 0.03 59 1003.4
20260509185818 15 177 6.4 12.9 0.00 0.03 0.03 59 1003.4
20260509184815 15 222 6.4 9.7 0.00 0.03 0.03 61 1003.6
20260509183835 14 205 3.2 6.4 0.00 0.03 0.03 65 1003.6
20260509182818 13 236 6.4 9.7 0.00 0.03 0.03 67 1003.5
20260509181819 13 169 6.4 9.7 0.00 0.03 0.03 71 1003.5
20260509180818 13 179 3.2 9.7 0.00 0.03 0.03 73 1003.8
20260509175815 13 183 3.2 4.8 0.00 0.03 0.03 70 1003.7
20260509174858 13 226 1.6 3.2 0.03 0.03 0.03 69 1003.7
20260509173816 13 165 3.2 3.2 0.03 0.03 0.03 72 1003.4
20260509172816 13 140 3.2 3.2 0.03 0.03 0.03 75 1003.1